TimeEDT,TemperatureF,Dew PointF,Humidity,Sea Level PressureIn,VisibilityMPH,Wind Direction,Wind SpeedMPH,Gust SpeedMPH,PrecipitationIn,Events,Conditions,WindDirDegrees,DateUTC
12:15 AM,69.3,69.3,100,30.21,7.0,Calm,Calm,-,N/A,,Scattered Clouds,0,2013-06-25 04:15:00
12:35 AM,69.1,69.1,100,30.20,10.0,Calm,Calm,-,N/A,,Scattered Clouds,0,2013-06-25 04:35:00
12:55 AM,68.4,68.4,100,30.20,7.0,Calm,Calm,-,N/A,,Clear,0,2013-06-25 04:55:00
1:15 AM,68.0,68.0,100,30.20,5.0,Calm,Calm,-,N/A,,Scattered Clouds,0,2013-06-25 05:15:00
1:35 AM,68.0,68.0,100,30.19,5.0,Calm,Calm,-,N/A,,Scattered Clouds,0,2013-06-25 05:35:00
1:55 AM,67.6,67.6,100,30.19,5.0,Calm,Calm,-,N/A,,Clear,0,2013-06-25 05:55:00
2:15 AM,67.5,67.5,100,30.19,5.0,Calm,Calm,-,N/A,,Clear,0,2013-06-25 06:15:00
2:35 AM,66.9,66.9,100,30.19,5.0,Calm,Calm,-,N/A,,Scattered Clouds,0,2013-06-25 06:35:00
2:55 AM,66.7,66.7,100,30.19,5.0,Calm,Calm,-,N/A,,Scattered Clouds,0,2013-06-25 06:55:00
3:15 AM,66.7,66.7,100,30.19,5.0,Calm,Calm,-,N/A,,Scattered Clouds,0,2013-06-25 07:15:00
3:35 AM,66.9,66.9,100,30.18,7.0,Calm,Calm,-,N/A,,Scattered Clouds,0,2013-06-25 07:35:00
3:55 AM,66.4,66.4,100,30.18,5.0,Calm,Calm,-,N/A,,Clear,0,2013-06-25 07:55:00
4:15 AM,66.2,66.2,100,30.17,5.0,Calm,Calm,-,N/A,,Clear,0,2013-06-25 08:15:00
4:35 AM,66.4,66.4,100,30.17,7.0,Calm,Calm,-,N/A,,Clear,0,2013-06-25 08:35:00
4:55 AM,66.6,66.6,100,30.16,7.0,Calm,Calm,-,N/A,,Clear,0,2013-06-25 08:55:00
5:15 AM,66.0,66.0,100,30.16,5.0,Calm,Calm,-,N/A,,Clear,0,2013-06-25 09:15:00
5:35 AM,67.1,67.1,100,30.17,7.0,Calm,Calm,-,N/A,,Clear,0,2013-06-25 09:35:00
5:55 AM,66.4,66.4,100,30.18,5.0,Calm,Calm,-,N/A,,Clear,0,2013-06-25 09:55:00
6:15 AM,66.0,66.0,100,30.19,3.0,Calm,Calm,-,N/A,,Clear,0,2013-06-25 10:15:00
6:35 AM,66.0,66.0,100,30.19,4.0,Calm,Calm,-,N/A,,Clear,0,2013-06-25 10:35:00
6:55 AM,66.9,66.9,100,30.19,5.0,Calm,Calm,-,N/A,,Scattered Clouds,0,2013-06-25 10:55:00
7:15 AM,67.3,67.3,100,30.20,5.0,Calm,Calm,-,N/A,,Scattered Clouds,0,2013-06-25 11:15:00
7:35 AM,68.4,68.4,100,30.20,5.0,Calm,Calm,-,N/A,,Overcast,0,2013-06-25 11:35:00
7:55 AM,69.3,69.3,100,30.21,5.0,Calm,Calm,-,N/A,,Overcast,0,2013-06-25 11:55:00
8:15 AM,70.9,69.8,96,30.22,10.0,Calm,Calm,-,N/A,,Mostly Cloudy,0,2013-06-25 12:15:00
8:35 AM,72.1,69.8,92,30.22,10.0,West,5.8,-,N/A,,Mostly Cloudy,270,2013-06-25 12:35:00
8:55 AM,72.0,69.8,93,30.22,10.0,West,5.8,-,N/A,,Mostly Cloudy,280,2013-06-25 12:55:00
9:15 AM,73.6,70.9,91,30.23,10.0,WNW,5.8,-,N/A,,Overcast,300,2013-06-25 13:15:00
9:35 AM,73.9,71.1,91,30.23,7.0,West,8.1,-,N/A,,Mostly Cloudy,280,2013-06-25 13:35:00
9:55 AM,76.1,71.6,86,30.23,10.0,WNW,8.1,-,N/A,,Mostly Cloudy,290,2013-06-25 13:55:00
10:15 AM,75.9,70.9,84,30.23,10.0,West,8.1,-,N/A,,Mostly Cloudy,270,2013-06-25 14:15:00
10:35 AM,76.5,70.2,81,30.22,10.0,West,11.5,16.1,N/A,,Scattered Clouds,280,2013-06-25 14:35:00
10:55 AM,76.8,70.9,82,30.23,10.0,WNW,6.9,16.1,N/A,,Mostly Cloudy,300,2013-06-25 14:55:00
11:15 AM,77.0,70.9,81,30.22,10.0,WNW,5.8,-,N/A,,Scattered Clouds,300,2013-06-25 15:15:00
11:35 AM,78.3,70.9,78,30.22,10.0,NW,5.8,-,N/A,,Scattered Clouds,310,2013-06-25 15:35:00
11:55 AM,77.9,70.3,77,30.22,10.0,NNW,8.1,-,N/A,,Scattered Clouds,330,2013-06-25 15:55:00
12:15 PM,78.1,71.1,79,30.21,10.0,West,6.9,-,N/A,,Scattered Clouds,280,2013-06-25 16:15:00
12:35 PM,79.0,70.7,76,30.20,10.0,Calm,Calm,-,N/A,,Mostly Cloudy,0,2013-06-25 16:35:00
12:55 PM,81.3,70.9,70,30.19,10.0,West,4.6,-,N/A,,Mostly Cloudy,280,2013-06-25 16:55:00
1:15 PM,81.5,70.7,70,30.18,10.0,WNW,6.9,-,N/A,,Mostly Cloudy,290,2013-06-25 17:15:00
1:35 PM,80.6,70.7,72,30.18,10.0,WSW,6.9,-,N/A,,Mostly Cloudy,250,2013-06-25 17:35:00
1:55 PM,82.0,70.2,67,30.17,10.0,WSW,6.9,-,N/A,,Overcast,240,2013-06-25 17:55:00
2:15 PM,80.8,70.0,70,30.16,10.0,West,9.2,-,N/A,,Mostly Cloudy,260,2013-06-25 18:15:00
2:35 PM,78.1,70.9,78,30.17,10.0,NW,6.9,-,N/A,,Overcast,310,2013-06-25 18:35:00
2:55 PM,78.3,71.6,80,30.17,10.0,West,8.1,-,N/A,,Overcast,270,2013-06-25 18:55:00
3:15 PM,78.1,69.6,75,30.17,10.0,WNW,6.9,-,N/A,Thunderstorm,Mostly Cloudy,290,2013-06-25 19:15:00
3:35 PM,78.4,70.9,77,30.17,10.0,WNW,3.5,-,N/A,,Scattered Clouds,290,2013-06-25 19:35:00
3:55 PM,79.7,69.4,71,30.16,10.0,WNW,4.6,-,N/A,Thunderstorm,Thunderstorm,290,2013-06-25 19:55:00
4:15 PM,81.9,70.0,67,30.16,10.0,NNW,4.6,-,N/A,,Mostly Cloudy,340,2013-06-25 20:15:00
4:35 PM,83.3,72.0,68,30.16,10.0,SW,6.9,-,N/A,,Scattered Clouds,220,2013-06-25 20:35:00
4:55 PM,82.2,71.8,71,30.14,10.0,SW,6.9,-,N/A,,Mostly Cloudy,220,2013-06-25 20:55:00
5:15 PM,82.9,71.8,69,30.11,10.0,Calm,Calm,-,N/A,,Mostly Cloudy,0,2013-06-25 21:15:00
5:35 PM,82.6,68.9,63,30.11,10.0,NW,4.6,-,N/A,,Scattered Clouds,320,2013-06-25 21:35:00
5:55 PM,83.3,70.2,64,30.11,10.0,Calm,Calm,-,N/A,,Scattered Clouds,0,2013-06-25 21:55:00
6:15 PM,80.8,72.0,74,30.10,10.0,WNW,4.6,-,N/A,,Mostly Cloudy,290,2013-06-25 22:15:00
6:35 PM,79.2,72.3,79,30.09,10.0,NW,5.8,-,N/A,,Scattered Clouds,320,2013-06-25 22:35:00
6:55 PM,78.3,71.8,80,30.10,10.0,NW,3.5,-,N/A,,Clear,310,2013-06-25 22:55:00
7:15 PM,79.0,71.4,78,30.10,10.0,WNW,5.8,-,N/A,,Scattered Clouds,300,2013-06-25 23:15:00
7:35 PM,79.0,71.2,77,30.09,10.0,West,4.6,-,N/A,,Scattered Clouds,260,2013-06-25 23:35:00
7:55 PM,78.8,70.2,75,30.10,10.0,West,5.8,-,N/A,,Clear,280,2013-06-25 23:55:00
8:15 PM,77.5,70.2,78,30.11,10.0,WNW,3.5,-,N/A,,Clear,290,2013-06-26 00:15:00
8:35 PM,76.3,70.5,82,30.11,10.0,NNW,3.5,-,N/A,,Clear,330,2013-06-26 00:35:00
8:55 PM,75.2,70.3,85,30.12,10.0,NNW,4.6,-,N/A,,Clear,330,2013-06-26 00:55:00
9:15 PM,74.3,69.8,86,30.12,10.0,Calm,Calm,-,N/A,,Clear,0,2013-06-26 01:15:00
9:35 PM,73.4,69.8,88,30.12,10.0,Calm,Calm,-,N/A,,Clear,0,2013-06-26 01:35:00
9:55 PM,72.5,69.6,91,30.12,10.0,WSW,3.5,-,N/A,,Clear,250,2013-06-26 01:55:00
10:15 PM,72.1,69.3,91,30.13,10.0,Calm,Calm,-,N/A,,Clear,0,2013-06-26 02:15:00
10:35 PM,70.7,69.4,96,30.14,10.0,Calm,Calm,-,N/A,,Clear,0,2013-06-26 02:35:00
10:55 PM,70.3,69.3,96,30.13,10.0,Calm,Calm,-,N/A,,Clear,0,2013-06-26 02:55:00
11:15 PM,69.8,69.1,98,30.12,10.0,Calm,Calm,-,N/A,,Clear,0,2013-06-26 03:15:00
11:35 PM,68.9,68.9,100,30.12,10.0,Calm,Calm,-,N/A,,Clear,0,2013-06-26 03:35:00
11:55 PM,67.8,67.8,100,30.11,7.0,NW,3.5,-,N/A,,Clear,320,2013-06-26 03:55:00